Weather in Mikhaylovka

Russia / Rostov Oblast     46°42′14″N   40°59′59″E
temp.,
°C
wind,
m/s
gust,
m/s
humid.,
%
clouds,
%
prec.,
mm/h
press.,
hPa
HPBL,
m
6 august, fri
fri600:00+25e344391 0.0 101251
03:00+25ese41245100 0.2 1011300
06:00+24e5123987 0.3 1012340
09:00+30ese9112694 0.3 10111028
12:00+35ese911225 0.0 10091989
15:00+36e9102122 0.0 10072685
18:00+34e81023100 0.0 10061239
21:00+31e71627100 0.0 1006566
7 august, sat
sat700:00+29e81723100 0.0 1006637
03:00+27e71628100 0.0 1006539
06:00+26ese81636100 0.0 1006651
09:00+30ese81229100 0.2 1006994
12:00+35ese792093 0.1 10051893
15:00+37e6818100 0.1 10042312
18:00+37e482193 0.0 10032443
21:00+30nw2237100 0.6 100428
8 august, sun
sun800:00+26sse2258100 0.6 100538
03:00+24ssw3576100 0.9 1007115
06:00+24s2273100 0.3 100954
09:00+23e2467100 0.8 1010333
12:00+28ese474733 0.1 1010643
15:00+32ne423189 0.1 10091836
18:00+31nnw4431100 0.0 10091014
21:00+23e3569100 1.0 101088
9 august, mon
mon900:00+22w59757 0.0 1011180
03:00+21wsw38884 0.0 1011166
06:00+21sw348764 0.0 1011128
09:00+27wnw335866 0.0 1012618
12:00+31wsw3340100 0.0 10121510
15:00+34w3333100 0.0 10122093
18:00+32wsw4439100 0.0 1012830
21:00+22w3684100 0.5 1013173
10 august, tue
tue1000:00+21nne008738 1.0 101311
03:00+21sw2388100 1.0 101341
06:00+21wsw3585100 0.0 1012150
09:00+27wsw3452100 0.0 1012602
12:00+31sw553566 0.0 10111746
15:00+33sw67325 0.0 10102262
18:00+32sw563587 0.0 10091841
21:00+27sw34485 0.0 101061